Search flights

Logan Intl Airport, Boston (KBOS)

Airport Weather & NOTAM's

METAR for:KBOS (Boston/Logan Intl, MA, US)
Text:KBOS 160754Z 34006KT 10SM CLR 14/06 A3017 RMK AO2 SLP217 T01440061 $
Conditions at:0754 UTC 16 Jun 2024
Temperature: 14.4°C ( 58°F)
Dewpoint: 6.1°C ( 43°F) [RH = 57%]
Pressure (altimeter):30.17 inches Hg (1021.8 mb) [Sea level pressure: 1021.7 mb]
Winds:from the NNW (340 degrees) at 7 MPH (6 knots; 3.1 m/s)
Visibility:10 or more sm (16+ km)
Ceiling:at least 12,000 feet AGL
Clouds:sky clear below 12,000 feet AGL
QC Flag:SOME DATA ABOVE MAY BE INACCURATE!!!"$" is an indication the sensor requires maintenance.
TAF for:KBOS (Boston/Logan Intl, MA, US) issued at 0755 UTC 16 Jun 2024
Text:KBOS 160755Z 1608/1712 34007KT P6SM SKC
Forecast period:0800 to 1300 UTC 16 June 2024
Forecast type:FROM: standard forecast or significant change
Winds:from the NNW (340 degrees) at 8 MPH (7 knots; 3.6 m/s)
Visibility:6 or more sm (10+ km)
Ceiling:at least 12,000 feet AGL
Clouds:clear skies
Text:FM161300 02006KT P6SM SKC
Forecast period:1300 to 1500 UTC 16 June 2024
Forecast type:FROM: standard forecast or significant change
Winds:from the NNE (20 degrees) at 7 MPH (6 knots; 3.1 m/s)
Visibility:6 or more sm (10+ km)
Ceiling:at least 12,000 feet AGL
Clouds:clear skies
Text:FM161500 10011KT P6SM FEW250
Forecast period:1500 to 2200 UTC 16 June 2024
Forecast type:FROM: standard forecast or significant change
Winds:from the E (100 degrees) at 13 MPH (11 knots; 5.7 m/s)
Visibility:6 or more sm (10+ km)
Ceiling:at least 12,000 feet AGL
Clouds:few clouds at 25000 feet AGL
Text:FM162200 19008KT P6SM SCT200
Forecast period:2200 UTC 16 June 2024 to 1200 UTC 17 June 2024
Forecast type:FROM: standard forecast or significant change
Winds:from the S (190 degrees) at 9 MPH (8 knots; 4.1 m/s)
Visibility:6 or more sm (10+ km)
Ceiling:at least 12,000 feet AGL
Clouds:scattered clouds at 20000 feet AGL

Live Departures & Arrivals

There are currently no arrivals or departures for this airport.

Departures History (last 12 months)

Flight No. Dest. Aircraft Date
FX 974 KORD GENERIC-B7... 2024-06-15 00:00:00
FX ATC KBOS IFATC 2024-05-04 00:00:00
FX CTR CYYZ FEDEX-B77F 2024-02-28 00:00:00
FX 007 KMEM FEDEX-B77F 2024-02-11 00:00:00
MTN8487 KMHT FEDEX-C208 2024-02-02 00:00:00
FX WINTER 17 CYHZ FEDEX-MD11... 2024-01-14 00:00:00
FX987 KEWR B763 2024-01-10 00:00:00
FX WINTER 17 CYHZ MD11F 2024-01-05 00:00:00
FX 987 KEWR B77F 2024-01-02 00:00:00
FX WINTER 17 CYHZ MD11F 2024-01-02 00:00:00
FX WINTER 17 CYHZ MD11F 2023-12-31 00:00:00
FXWINTER1 CYHZ MD11F 2023-12-25 00:00:00
FX WINTER 17 CYHZ MD11F 2023-12-24 00:00:00
FX WINTER 17 CYHZ MD11F 2023-12-22 00:00:00
FX WINTER 17 CYHZ MD11F 2023-12-22 00:00:00
FX WINTER 17 CYHZ MD11F 2023-12-20 00:00:00
FX WINTER 17 CYHZ MD11F 2023-12-20 00:00:00
FX CTR KJFK MD11F 2023-12-21 00:00:00
FX WINTER 17 CYHZ MD11F 2023-12-19 00:00:00
FX WINTER 17 CYHZ MD11F 2023-12-18 00:00:00
FX WINTER 17 CYHZ MD11F 2023-12-14 00:00:00
FX WINTER 17 CYHZ MD11F 2023-12-13 00:00:00
FXWINTER1 CYHZ MD11F 2023-12-07 00:00:00
FX WINTER 17 CYHZ MD11F 2023-12-06 00:00:00
FX WINTER 17 CYHZ MD11F 2023-12-03 00:00:00
FX 1105 KJAX B752 2023-12-02 00:00:00
FX 987 KEWR B763 2023-11-30 00:00:00
FX CTR OTHH B77F 2023-11-30 00:00:00
FX THANKSGIVING 3 KEWR B752 2023-11-26 00:00:00
FX THANKSGIVING 3 KEWR B752 2023-11-26 00:00:00
FX THANKSGIVING 3 KEWR B752 2023-11-25 00:00:00
FX THANKSGIVING 3 KEWR B752 2023-11-24 00:00:00
FXTHANKSG KEWR B752 2023-11-23 00:00:00
FX THANKSGIVING 3 KEWR B752 2023-11-23 00:00:00
FX THANKSGIVING 3 KEWR B752 2023-11-22 00:00:00
FX THANKSGIVING 3 KEWR B752 2023-11-22 00:00:00
FX THANKSGIVING 3 KEWR B752 2023-11-22 00:00:00
FX THANKSGIVING 3 KEWR B752 2023-11-21 00:00:00
FX THANKSGIVING 3 KEWR B752 2023-11-20 00:00:00
FX THANKSGIVING 3 KEWR B752 2023-11-20 00:00:00
FX THANKSGIVING 3 KEWR B752 2023-11-20 00:00:00
FX CTR YSSY B77F 2023-11-18 00:00:00
FX 007 KMEM MD11F 2023-10-06 00:00:00
FX EVENT CYHZ B77F 2023-09-30 00:00:00
FX EVENT CYHZ MD11F 2023-09-30 00:00:00
FX EVENT CYHZ B77F 2023-09-30 00:00:00
FX EVENT CYHZ MD11F 2023-09-30 00:00:00
FX EVENT CYHZ B77F 2023-09-30 00:00:00
FX EVENT CYHZ MD11F 2023-09-30 00:00:00
FX EVENT CYHZ B77F 2023-09-30 00:00:00
FX EVENT CYHZ B77F 2023-09-30 00:00:00
FX EVENT CYHZ B77F 2023-09-30 00:00:00
MTN 8419 KEWR C208 2023-09-05 00:00:00
FX 007 KMEM B77F 2023-08-30 00:00:00
FX 007 KMEM B77F 2023-08-30 00:00:00
FX WORLD 6 CYHZ DC10F 2023-07-28 00:00:00
MTN 8419 KEWR C208 2023-07-23 00:00:00
MTN 8419 KEWR C208 2023-07-22 00:00:00
FX007 KMEM B77F 2023-07-16 00:00:00
FX WORLD 6 CYHZ DC10F 2023-07-06 00:00:00
FX WORLD 6 CYHZ DC10F 2023-07-05 00:00:00
FX WORLD 6 CYHZ DC10F 2023-07-03 00:00:00
FX WORLD 6 CYHZ DC10F 2023-06-27 00:00:00
FX WORLD 6 CYHZ DC10F 2023-06-27 00:00:00
FX WORLD 6 CYHZ DC10F 2023-06-27 00:00:00
FX WORLD 6 CYHZ DC10F 2023-06-22 00:00:00
FX WORLD 6 CYHZ DC10F 2023-06-21 00:00:00
FXWORLD6 CYHZ DC10F 2023-06-20 00:00:00
FX WORLD 6 CYHZ DC10F 2023-06-20 00:00:00
FX WORLD 6 CYHZ DC10F 2023-06-20 00:00:00
FX WORLD 6 CYHZ DC10F 2023-06-20 00:00:00
FX WORLD 6 CYHZ DC10F 2023-06-20 00:00:00
FX WORLD 6 CYHZ DC10F 2023-06-20 00:00:00
FX WORLD 6 CYHZ DC10F 2023-06-19 00:00:00
FX WORLD 6 CYHZ DC10F 2023-06-19 00:00:00
FX WORLD 6 CYHZ DC10F 2023-06-19 00:00:00
FX WORLD 6 CYHZ DC10F 2023-06-18 00:00:00
FX WORLD 6 CYHZ DC10F 2023-06-17 00:00:00
FX WORLD 6 CYHZ DC10F 2023-06-17 00:00:00

Arrivals History (last 12 months)

Flight No. Origin Aircraft Date
FX ATC KBOS IFATC 2024-05-04 00:00:00
FX 006 KMEM FEDEX-MD11... 2024-04-20 00:00:00
MTN 8488 KMHT FEDEX-C208 2024-04-19 00:00:00
FX 006 KMEM FEDEX-B77F 2024-03-31 00:00:00
FX1049 KGSO GENERIC-B7... 2024-02-02 00:00:00
FX 006 KMEM FEDEX-B77F 2024-01-24 00:00:00
FX WINTER 16 CYYZ B738 2024-01-12 00:00:00
FX CTR KPVD B738 2024-01-10 00:00:00
FX WINTER 16 CYYZ B738 2024-01-05 00:00:00
FXWINTER16 CYYZ B738 2024-01-01 00:00:00
FX WINTER 16 CYYZ B738 2023-12-31 00:00:00
FX CTR KOAK B77F 2023-12-28 00:00:00
FX WINTER 16 CYYZ B738 2023-12-24 00:00:00
FX WINTER 16 CYYZ B738 2023-12-24 00:00:00
FX WINTER 16 CYYZ B738 2023-12-22 00:00:00
FX WINTER 16 CYYZ B738 2023-12-21 00:00:00
FX WINTER 16 CYYZ B738 2023-12-20 00:00:00
FX WINTER 16 CYYZ B738 2023-12-20 00:00:00
FX WINTER 16 CYYZ B738 2023-12-19 00:00:00
FX WINTER 16 CYYZ B738 2023-12-18 00:00:00
FX WINTER 16 CYYZ B738 2023-12-13 00:00:00
FX WINTER 16 CYYZ B738 2023-12-13 00:00:00
FXWINTER1 CYYZ B738 2023-12-07 00:00:00
FX WINTER 16 CYYZ B738 2023-12-05 00:00:00
FX WINTER 16 CYYZ B738 2023-12-03 00:00:00
FX CTR KJFK MD11F 2023-12-02 00:00:00
FX CTR YSSY B77F 2023-11-30 00:00:00
FXTHANKSG EGLL MD11F 2023-11-26 00:00:00
FX THANKSGIVING 2 EGLL B77F 2023-11-26 00:00:00
FX THANKSGIVING 2 EGLL B77F 2023-11-26 00:00:00
FX THANKSGIVING 2 EGLL B77F 2023-11-25 00:00:00
FX THANKSGIVING 2 EGLL B77F 2023-11-23 00:00:00
FX THANKSGIVING 2 EGLL B77F 2023-11-23 00:00:00
FX THANKSGIVING 2 EGLL B77F 2023-11-22 00:00:00
FX THANKSGIVING 2 EGLL B77F 2023-11-22 00:00:00
FX THANKSGIVING 2 EGLL B77F 2023-11-21 00:00:00
FX THANKSGIVING 2 EGLL B77F 2023-11-21 00:00:00
FX THANKSGIVING 2 EGLL B77F 2023-11-20 00:00:00
FX THANKSGIVING 2 EGLL B77F 2023-11-20 00:00:00
FX THANKSGIVING 2 EGLL B77F 2023-11-20 00:00:00
FX THANKSGIVING 2 EGLL B77F 2023-11-20 00:00:00
FX THANKSGIVING 2 EGLL B77F 2023-11-20 00:00:00
MTN8418 KEWR C208 2023-11-05 00:00:00
MTN 8418 KEWR C208 2023-10-05 00:00:00
FX CTR EGSS B77F 2023-10-03 00:00:00
FX 006 KMEM TNT B77F 2023-09-12 00:00:00
FX CTR ZGGG B77F 2023-08-30 00:00:00
FX WORLD 5 KEWR B752 2023-08-10 00:00:00
FX CTR PANC B77F 2023-07-29 00:00:00
FX WORLD 5 KEWR B752 2023-07-28 00:00:00
MTN 8418 KEWR C208 2023-07-22 00:00:00
FX WORLD 5 KEWR B752 2023-07-06 00:00:00
FX WORLD 5 KEWR B752 2023-07-04 00:00:00
FX WORLD 5 KEWR B752 2023-07-03 00:00:00
FX WORLD 5 KEWR B752 2023-06-27 00:00:00
FX WORLD 5 KEWR B752 2023-06-27 00:00:00
FX WORLD 5 KEWR B752 2023-06-26 00:00:00
MTN8418 KEWR C208 2023-06-25 00:00:00
FX EVENT KPHX B77F 2023-06-24 00:00:00
FX EVENT KPHX B77F 2023-06-24 00:00:00
FX EVENT KPHX B77F 2023-06-24 00:00:00
FX WORLD 5 KEWR DHC8 2023-06-23 00:00:00
FX WORLD 5 KEWR DHC8 2023-06-22 00:00:00
FX WORLD 5 KEWR DHC8 2023-06-20 00:00:00
FX WORLD 5 KEWR DHC8 2023-06-19 00:00:00
FX WORLD 5 KEWR DHC8 2023-06-19 00:00:00
FX WORLD 5 KEWR DHC8 2023-06-19 00:00:00
FX WORLD 5 KEWR DHC8 2023-06-19 00:00:00
FX WORLD 5 KEWR DHC8 2023-06-19 00:00:00
FX WORLD 5 KEWR DHC8 2023-06-19 00:00:00
FX WORLD 5 KEWR DHC8 2023-06-18 00:00:00
FX WORLD 5 KEWR DHC8 2023-06-18 00:00:00
FX WORLD 5 KEWR DHC8 2023-06-18 00:00:00
FX WORLD 5 KEWR DHC8 2023-06-17 00:00:00
FX WORLD 5 KEWR DHC8 2023-06-17 00:00:00
FX WORLD 5 KEWR DHC8 2023-06-17 00:00:00

Runway Information (Airport elevation: 16ft)

Runway 04L Length 7,999ft Width 150ft Elevation 16ft Surface Asphalt Heading 20
Runway 04R Length 10,227ft Width 150ft Elevation 16ft Surface Asphalt Heading 20
Runway 09 Length 7,148ft Width 150ft Elevation 16ft Surface Asphalt Heading 77
Runway 14 Length 4,998ft Width 100ft Elevation 16ft Surface Asphalt Heading 126
Runway 15L Length 2,707ft Width 100ft Elevation 16ft Surface Asphalt Heading 135
Runway 15R Length 10,087ft Width 150ft Elevation 16ft Surface Asphalt Heading 135
Runway 22L Length 10,227ft Width 150ft Elevation 16ft Surface Asphalt Heading 200
Runway 22R Length 7,999ft Width 150ft Elevation 16ft Surface Asphalt Heading 200
Runway 27 Length 7,148ft Width 150ft Elevation 16ft Surface Asphalt Heading 257
Runway 32 Length 4,998ft Width 100ft Elevation 16ft Surface Asphalt Heading 306
Runway 33L Length 10,087ft Width 150ft Elevation 16ft Surface Asphalt Heading 315
Runway 33R Length 2,707ft Width 100ft Elevation 16ft Surface Asphalt Heading 315

Airport Frequencies

Type APP/DEP Frequency 118.250 Mhz
Type APP/DEP Frequency 120.600 Mhz
Type APP/DEP Frequency 127.200 Mhz
Type ASOS Frequency 135.000 Mhz
Type ATIS Frequency 135.000 Mhz
Type Clearance Frequency 121.650 Mhz
Type CPT Frequency 121.650 Mhz
Type D Frequency 133.000 Mhz
Type FSS Frequency 122.100 Mhz
Type FSS Frequency 122.400 Mhz
Type Ground Frequency 121.750 Mhz
Type Ground Frequency 121.900 Mhz
Type Ground Frequency 134.050 Mhz
Type Tower Frequency 124.725 Mhz
Type Tower Frequency 128.800 Mhz
Type Tower Frequency 132.225 Mhz
Type UC Frequency 122.950 Mhz
Type D Frequency 124.100 Mhz
Type D Frequency 124.400 Mhz
Type FSS Frequency 122.400 Mhz
Type Ground Frequency 131.100 Mhz
Type Ground Frequency 134.050 Mhz
Type UC Frequency 122.950 Mhz

Airport Navaids

Type NDB Ident BO Frequency 375 Khz
Type VORTAC Ident BOS Frequency 112700 Khz
Type NDB Ident LI Frequency 346 Khz
Type NDB Ident LQ Frequency 382 Khz